AO-07 1 07530U 74089B 20036.92985083 -.00000038 00000-0 43888-4 0 9995 2 07530 101.7816 007.5095 0011909 259.5797 166.9201 12.53641992069384 UO-11 1 14781U 84021B 20037.05733879 .00000070 00000-0 14645-4 0 9991 2 14781 97.5970 55.5694 0006982 277.9685 82.0737 14.83140037933208 LO-19 1 20442U 90005G 20037.68084498 -.00000010 00000-0 12742-4 0 9997 2 20442 98.6772 344.5978 0011700 177.6226 182.5015 14.32944318569745 HUBBLE 1 20580U 90037B 20037.58935317 .00000392 00000-0 12845-4 0 9995 2 20580 028.4694 111.7912 0002917 109.3607 034.3122 15.09334425436023 MET-2/21 1 22782U 93055A 20037.36130441 .00000064 00000-0 44080-4 0 9997 2 22782 82.5519 338.4173 0021093 244.5883 228.6757 13.83824668335042 AO-27 1 22825U 93061C 20036.99786061 .00000000 00000-0 18074-4 0 9999 2 22825 098.9200 036.1344 0009184 047.6334 312.5623 14.30077228374885 IO-26 1 22826U 93061D 20037.22512443 .00000009 00000-0 21551-4 0 9991 2 22826 098.9141 036.3298 0009546 036.1192 324.0633 14.30412025375144 FO-29 1 24278U 96046B 20037.25209790 -.00000041 00000-0 -44259-5 0 9990 2 24278 098.5666 164.5070 0350294 357.4500 002.4845 13.53095604159009 NOAA-15 1 25338U 98030A 20037.79907253 .00000025 00000-0 29210-4 0 9990 2 25338 98.7303 63.4320 0009414 287.0615 72.9534 14.25950144130467 GO-32 1 25397U 98043D 20037.59979913 -.00000026 00000-0 77327-5 0 9994 2 25397 98.7154 340.1986 0002385 84.6551 275.4899 14.23678821121011 ISS 1 25544U 98067A 20037.96614706 .00000277 00000-0 13163-4 0 9995 2 25544 51.6443 277.7357 0005170 235.1658 266.2013 15.49142714211671 NO-44 1 26931U 01043C 20037.66309493 -.00000031 00000-0 20081-4 0 9991 2 26931 67.0515 122.4938 0006584 263.2075 96.8277 14.30566254958292 SO-50 1 27607U 02058C 20037.55229993 -.00000035 00000-0 15833-4 0 9996 2 27607 064.5550 057.6460 0064093 209.8475 149.8966 14.75607403921264 CO-55 1 27844U 03031E 20037.87440143 .00000054 00000-0 44169-4 0 9992 2 27844 98.6840 47.5823 0010905 77.9895 282.2504 14.22219563861431 CO-57 1 27848U 03031J 20037.51107840 .00000043 00000-0 39342-4 0 9996 2 27848 98.6911 47.7669 0010829 89.8128 270.4290 14.21808935861224 RS-22 1 27939U 03042A 20037.66485644 .00000115 00000-0 29273-4 0 9998 2 27939 98.0689 174.4065 0013936 55.2170 305.0339 14.66834856874699 NOAA-18 1 28654U 05018A 20037.62136504 .00000064 00000-0 59350-4 0 9994 2 28654 99.0643 92.7002 0013546 240.1459 119.8366 14.12486678758395 CO-58 1 28895U 05043F 20037.82423740 .00000100 00000-0 28091-4 0 9991 2 28895 97.9876 178.0356 0016169 340.0852 19.9718 14.63735233761584 Falconsat-3 1 30776U 07006E 20037.34810804 .00002532 00000-0 69317-4 0 9998 2 30776 035.4353 044.8225 0001574 053.3794 306.7077 15.37167864716496 CO-65 1 32785U 08021C 20037.63645948 .00000196 00000-0 26676-4 0 9990 2 32785 97.5634 31.5286 0012311 204.4583 155.6052 14.88413546638331 AAUSAT2 1 32788U 08021F 20036.99563630 .00000199 00000-0 23140-4 0 9994 2 32788 97.4925 47.3862 0012768 135.1361 225.0895 14.94937384639629 DO-64 1 32789U 08021G 20037.11937489 .00000923 00000-0 64845-4 0 9999 2 32789 97.4368 84.4434 0013245 55.1230 305.1241 15.07433637641978 CO-66 1 32791U 08021J 20037.26002982 .00000283 00000-0 34009-4 0 9997 2 32791 097.5351 037.3000 0013302 176.5210 183.6104 14.90965824638680 RS-30 1 32953U 08025A 20037.64520724 .00000037 00000-0 19437-3 0 9996 2 32953 82.5061 359.8819 0019395 345.2204 14.8306 12.43094139531250 PRISM 1 33493U 09002B 20037.64080844 .00000801 00000-0 75165-4 0 9996 2 33493 98.1352 332.5690 0016220 127.5483 232.7214 14.96899524599990 NOAA-19 1 33591U 09005A 20037.61637042 .00000008 00000-0 29731-4 0 9990 2 33591 99.1941 39.5401 0014933 85.8428 274.4449 14.12394615566796 TISAT-1 1 36799U 10035E 20037.72770122 .00000448 00000-0 51069-4 0 9994 2 36799 98.1790 203.0454 0013085 46.4957 313.7346 14.91263774519499 JUGNU 1 37839U 11058B 20037.56808328 .00000291 00000-0 13504-4 0 9996 2 37839 019.9626 002.5683 0018878 015.0309 143.5742 14.12670529430111 SRMSAT 1 37841U 11058D 20037.73918360 .00000277 00000-0 69417-5 0 9995 2 37841 19.9729 63.1267 0011639 236.4957 280.1935 14.10648734429644 AO-71 1 37854U 11061E 20037.78500696 .00001038 00000-0 59972-4 0 9997 2 37854 101.7131 61.0824 0159289 93.3129 268.6319 15.06964017452099 HRBE 1 37855U 11061F 20037.51210214 .00000935 00000-0 54008-4 0 9993 2 37855 101.7266 057.8831 0171977 106.4730 255.5457 15.05976745451347 ALMASAT-1 1 38078U 12006B 20037.89606100 .00077731 63241-5 21405-3 0 9998 2 38078 69.4250 309.6119 0093722 252.6994 180.1580 15.86703700434150 HORYU-2 1 38340U 12025D 20037.40875200 .00000141 00000-0 28470-4 0 9997 2 38340 098.3005 087.6114 0012768 102.0393 258.2247 14.75806104405076 RS-40 1 38735U 12041C 20037.64396837 -.00000016 00000-0 -18580-3 0 9996 2 38735 82.4752 82.8576 0018259 89.5338 270.7830 12.42579601341487 BEESAT-3 1 39135U 13015F 20037.28745958 .00001066 00000-0 60989-4 0 9990 2 39135 64.8677 8.1794 0045735 266.8932 92.6960 15.17907678375547 BEESAT-2 1 39136U 13015G 20037.54524479 .00000698 00000-0 44522-4 0 9998 2 39136 064.8707 011.8905 0030486 278.7664 081.0009 15.17314588375108 ZACUBE-1 1 39417U 13066B 20037.36813049 .00000217 00000-0 33588-4 0 9997 2 39417 097.5622 042.7659 0058675 352.5569 007.4768 14.81217387335483 TRITON-1 1 39427U 13066M 20037.58431509 .00000184 00000-0 36962-4 0 9991 2 39427 97.7079 5.9783 0114588 139.4174 221.5645 14.67938369332508 GOMX-1 1 39430U 13066Q 20037.68278051 .00000089 00000-0 25502-4 0 9999 2 39430 97.7768 344.2780 0149581 239.5876 119.0462 14.59345380330585 LO-74 1 39440U 13066AA 20037.63286722 .00000232 00000-0 39028-4 0 9997 2 39440 97.6189 27.5138 0081323 48.9839 311.8366 14.75953640334334 AO-73 1 39444U 13066AE 20037.77884367 .00000273 00000-0 39837-4 0 9998 2 39444 97.5581 45.3010 0057555 344.0087 15.9308 14.82057925334455 SPROUT 1 39770U 14029E 20037.85633702 .00000409 00000-0 51125-4 0 9999 2 39770 97.8909 144.7940 0009846 45.1717 315.0298 14.87599540309496 DUCHIFAT-1 1 40021U 14033M 20037.52953995 .00000315 00000-0 37915-4 0 9995 2 40021 97.9364 328.0260 0013183 8.9287 351.2163 14.90803998306234 NANOSATCBR1 1 40024U 14033Q 20037.74814011 .00000346 00000-0 41801-4 0 9990 2 40024 97.9231 325.0340 0012560 12.4648 347.6878 14.89989172306144 EO-79 1 40025U 14033R 20037.75127575 .00000203 00000-0 27546-4 0 9996 2 40025 97.9127 322.1110 0012913 18.9680 341.2015 14.89065041306009 DTUSAT-2 1 40030U 14033W 20037.54296425 .00000190 00000-0 26417-4 0 9991 2 40030 97.9022 319.6433 0012295 15.9571 344.2031 14.88648963305893 EO-80 1 40032U 14033Y 20037.35555368 .00000175 00000-0 24830-4 0 9996 2 40032 097.9031 319.4579 0012273 017.4355 342.7281 14.88595013305333 ANTELSAT 1 40034U 14033AA 20037.59186132 .00000199 00000-0 36595-4 0 9990 2 40034 97.7308 259.4646 0059955 65.2505 295.4927 14.74200722302988 VELOX-1 1 40057U 14034E 20037.81025646 .00000268 00000-0 44953-4 0 9997 2 40057 98.2597 171.3382 0010488 199.9729 160.1075 14.77795302302190 DAURIA DX 1 1 40071U 14037C 20037.80107109 .00000081 00000-0 17858-4 0 9997 2 40071 98.4482 208.9815 0008135 190.1332 169.9725 14.81331007301762 UKUBE-1 1 40074U 14037F 20037.83876593 .00000303 00000-0 43469-4 0 9997 2 40074 98.4517 218.3501 0004112 166.3765 193.7548 14.84187614302234 HODOYOSHI-1 1 40299U 14070B 20037.81138606 .00000449 00000-0 21503-4 0 9993 2 40299 97.3344 117.5485 0011474 303.3526 153.3111 15.23860217291761 CHUBUSAT-1 1 40300U 14070C 20037.82263564 .00000464 00000-0 23026-4 0 9998 2 40300 97.3078 110.8312 0018902 321.4727 105.1893 15.22346595291488 QSAT-EOS 1 40301U 14070D 20037.78527087 .00001365 00000-0 54616-4 0 9997 2 40301 97.3065 115.1894 0023734 296.5904 157.4840 15.26546164291846 FIREBIRD FU3 1 40377U 15003B 20037.19392644 .00001944 00000-0 78498-4 0 9998 2 40377 099.1126 070.2592 0125631 036.0191 324.9423 15.19568849277216 FIREBIRD FU4 1 40378U 15003C 20037.77213069 .00002311 00000-0 92340-4 0 9997 2 40378 99.1126 71.0466 0125792 33.9875 326.9332 15.19585873277317 GRIFEX 1 40379U 15003D 20037.75962224 .00001544 00000-0 68360-4 0 9992 2 40379 99.1184 63.6962 0134643 56.3539 305.0449 15.16054261276899 NO-84 1 40654U 15025D 20037.15063073 .00013174 00000-0 16692-3 0 8452 2 40654 54.9854 189.3524 0124167 203.7199 155.8082 15.51167615148471 DEORBITSAIL 1 40719U 15032E 20037.25708059 .00000303 00000-0 50251-4 0 9993 2 40719 97.8861 289.0361 0015057 276.6308 83.3189 14.76904619246585 NUDT-PHONESAT 1 40900U 15049B 20037.86725787 .00001937 00000-0 83731-4 0 9990 2 40900 97.4353 49.9827 0014572 86.7638 33.5639 15.23585963243153 XW-2A 1 40903U 15049E 20037.83922155 .00001626 00000-0 39284-4 0 9997 2 40903 97.3086 86.5925 0014230 28.2227 29.4980 15.42597032246180 XW-2C 1 40906U 15049H 20037.83633281 .00000313 00000-0 19758-4 0 9995 2 40906 97.4745 41.1607 0016507 108.2798 13.2728 15.15916243242312 XW-2D 1 40907U 15049J 20037.84916876 .00000537 00000-0 31225-4 0 9992 2 40907 97.4728 40.8628 0015894 105.4599 14.3646 15.16131021242336 LILACSAT-2 1 40908U 15049K 20037.85794279 .00000405 00000-0 25906-4 0 9998 2 40908 97.4871 39.4063 0017516 113.5204 3.8681 15.13949935242081 XW-2E 1 40909U 15049L 20037.87187826 .00001015 00000-0 52857-4 0 9998 2 40909 97.4633 44.1357 0015341 99.2826 18.7328 15.18177875242568 XW-2F 1 40910U 15049M 20037.84623000 .00000764 00000-0 41165-4 0 9996 2 40910 97.4677 43.2315 0016427 97.5699 21.9863 15.17687259242377 XW-2B 1 40911U 15049N 20037.82714212 .00000478 00000-0 28242-4 0 9994 2 40911 97.4750 41.5276 0015814 106.3676 15.6274 15.16058001242226 DCBB 1 40912U 15049P 20037.84920463 .00000938 00000-0 46539-4 0 9994 2 40912 97.4502 47.2294 0016654 80.3524 41.7355 15.20048772242725 TW-1C 1 40926U 15051B 20037.84411002 .00014748 00000-0 17633-3 0 9992 2 40926 97.1054 89.0690 0005694 207.1050 241.8240 15.61077526246463 TW-1A 1 40928U 15051D 20037.83637479 .00002486 00000-0 60360-4 0 9993 2 40928 97.1246 68.8262 0009105 313.9539 219.6166 15.41916984245082 IO-86 1 40931U 15052B 20032.17104351 .00000574 00000-0 -90566-5 0 9997 2 40931 005.9945 234.3432 0012528 134.3905 225.7744 14.76623900234935 LQSat 1 40958U 15057A 20037.41246387 .00000015 00000-0 99486-5 0 9998 2 40958 97.8712 104.9697 0017468 210.3755 149.6443 14.73107193233068 AO-85 1 40967U 15058D 20037.32905920 .00000186 00000-0 40229-4 0 9476 2 40967 64.7730 171.9684 0174090 123.7617 238.0211 14.76066345142072 ATHENOXAT-1 1 41168U 15077C 20037.09796988 .00001915 00000-0 65193-4 0 9992 2 41168 14.9887 312.3238 0011371 86.3836 273.7785 15.14085332229259 ChubuSat-2 1 41338U 16012B 20037.56777428 .00000294 00000-0 16087-4 0 9998 2 41338 31.0034 104.7204 0013790 250.4668 109.4478 15.00240072217915 ChubuSat-3 1 41339U 16012C 20037.84315004 .00000310 00000-0 17247-4 0 9996 2 41339 31.0117 100.7671 0013672 261.6568 98.2519 15.00409244217957 Horyu-4 1 41340U 16012D 20037.53662660 .00000470 00000-0 28849-4 0 9994 2 41340 31.0053 91.8239 0013949 279.8330 80.0731 15.01410633218033 OUFTI-1 1 41458U 16025C 20036.85577924 .00000707 00000-0 40123-4 0 9992 2 41458 98.0979 140.5507 0163435 296.3555 62.0968 15.06420263207510 e-st@r-II 1 41459U 16025D 20037.79435841 .00000847 00000-0 47474-4 0 9999 2 41459 98.0976 141.0529 0164447 294.9796 63.4389 15.06020399207623 AAUSAT4 1 41460U 16025E 20037.72767601 .00001367 00000-0 71744-4 0 9991 2 41460 98.0926 142.8686 0154172 285.4606 72.9612 15.08144032207786 LO-87 1 41557U 16033B 20037.80443399 .00001176 00000-0 46080-4 0 9994 2 41557 97.4078 128.9104 0013436 187.1389 172.9661 15.27711335205675 NuSat2 1 41558U 16033C 20037.80818124 .00001296 00000-0 47681-4 0 9998 2 41558 97.4119 130.7405 0012520 185.1567 174.9546 15.29658627205766 Lapan A3 1 41603U 16040E 20037.85213648 .00000129 00000-0 91583-5 0 9997 2 41603 97.3299 95.3751 0011822 308.2617 105.5466 15.19793398201157 Swayam 1 41607U 16040J 20037.42808896 .00001237 00000-0 54125-4 0 9990 2 41607 097.3367 099.8126 0011667 295.2086 064.7942 15.23866409201316 Pratham 1 41783U 16059A 20037.27196671 .00000042 00000-0 17388-4 0 9992 2 41783 98.0368 96.3184 0033780 14.7273 345.4905 14.63035296179551 AlSat 1N 1 41789U 16059G 20037.88158167 .00000050 00000-0 18407-4 0 9995 2 41789 98.0402 99.4284 0028311 1.9714 358.1579 14.64294416179777 ScatSat 1 41790U 16059H 20037.81583534 -.00000011 00000-0 80913-5 0 9990 2 41790 98.1802 81.8953 0005320 342.3184 17.7816 14.50899607178139 TY-1 1 41844U 16066D 20037.85804481 .00000779 00000-0 34372-4 0 9996 2 41844 97.4054 47.5073 0016903 87.7163 32.7053 15.24629179180217 Pegasus-1 1 41846U 16066F 20037.54748291 .00000185 00000-0 39523-4 0 9994 2 41846 098.6819 086.0967 0366019 265.8563 090.0721 14.37696947170016 CAS-2T 1 41847U 16066G 20037.56389229 .00000036 00000-0 16866-4 0 9999 2 41847 098.6750 086.6168 0364676 261.8079 094.1602 14.38038286170464 EO-88 1 42017U 17008BX 20037.24983818 .00001295 00000-0 52962-4 0 9990 2 42017 97.3769 106.6642 0007785 74.3022 285.9075 15.26115110165389 nSIGHT1 1 42726U 98067MF 20037.79519140 .00087729 00000-0 32627-3 0 9995 2 42726 51.6282 185.6618 0003271 336.2273 23.8580 15.87289484154610 CAS-4B 1 42759U 17034B 20037.82699471 .00000261 00000-0 29401-4 0 9999 2 42759 43.0189 30.2059 0012885 282.3269 143.7047 15.09736148146077 CAS-4A 1 42761U 17034D 20037.84497439 .00000171 00000-0 23907-4 0 9999 2 42761 43.0195 29.4923 0013366 282.4364 147.3401 15.09813686146076 UCLSat 1 42765U 17036A 20037.58854336 .00001172 00000-0 52356-4 0 9991 2 42765 97.3208 95.2561 0012776 126.0748 234.1674 15.23219875145914 NIUSat 1 42766U 17036B 20037.41819089 .00000805 00000-0 38712-4 0 9992 2 42766 097.3203 092.9167 0017027 121.1640 239.1269 15.21481330145614 LituanicaSAT 2 1 42768U 17036D 20037.60409729 .00001926 00000-0 83193-4 0 9999 2 42768 97.3256 95.0642 0016371 118.3431 241.9460 15.23565389145762 Aalto 1 1 42775U 17036L 20037.28268452 .00000641 00000-0 31310-4 0 9994 2 42775 097.3187 093.1349 0015388 120.8348 239.4404 15.21644653145577 URSA MAIOR 1 42776U 17036M 20037.41846997 .00000714 00000-0 34357-4 0 9991 2 42776 097.3198 093.4973 0015221 120.2240 240.0506 15.21806550145608 Max Valier Sat 1 42778U 17036P 20037.10658611 .00000755 00000-0 35622-4 0 9994 2 42778 97.3247 94.2816 0013744 124.3212 235.9327 15.22382995145597 Pegasus 1 42784U 17036V 20037.39060183 .00001082 00000-0 48952-4 0 9997 2 42784 97.3213 94.8034 0013296 127.6712 232.5733 15.22930822145679 NUDATSat 1 42787U 17036Y 20037.75202308 .00001209 00000-0 52558-4 0 9995 2 42787 97.3259 96.2660 0011540 118.5581 241.6824 15.24099951145635 SUCHAI 1 1 42788U 17036Z 20037.06606005 .00001192 00000-0 52869-4 0 9998 2 42788 97.3220 94.9592 0012868 127.3906 232.8505 15.23424618145725 SKCUBE 1 42789U 17036AA 20037.42787311 .00001067 00000-0 47824-4 0 9995 2 42789 097.3214 095.2025 0012776 126.4641 233.7775 15.23291040145694 VZLUSAT 1 1 42790U 17036AB 20037.28048333 .00001400 00000-0 60450-4 0 9996 2 42790 097.3236 095.8003 0012301 125.3340 234.9050 15.24091113145712 VENTA 1 1 42791U 17036AC 20037.26962881 .00000974 00000-0 43934-4 0 9991 2 42791 097.3213 095.0962 0012416 127.2782 232.9589 15.23285383145664 Robusta 1B 1 42792U 17036AD 20037.59478195 .00001212 00000-0 53673-4 0 9995 2 42792 97.3216 95.5767 0012358 126.1935 234.0447 15.23473982145748 D-SAT 1 42794U 17036AF 20037.39038989 .00000289 00000-0 30133-4 0 9997 2 42794 097.5111 076.4632 0127828 085.8354 275.7463 14.91213114143011 TechnoSat 1 42829U 17042E 20037.75285758 .00000195 00000-0 25029-4 0 9995 2 42829 97.5389 285.5635 0014488 10.1026 350.0481 14.91053032139661 QIKCOM-1 1 42983U 98067NF 20037.68765606 .00003535 00000-0 48332-4 0 9992 2 42983 51.6376 249.1978 0003247 279.1766 80.8860 15.60454757129703 AO-91 1 43017U 17073E 20037.31616900 .00000342 00000-0 31593-4 0 9995 2 43017 97.7269 314.6316 0258697 120.6683 242.0302 14.78786250119635 EcAMSat 1 43019U 98067NG 20037.60040461 .00006346 00000-0 71255-4 0 9993 2 43019 51.6389 239.6825 0003585 260.8143 99.2446 15.64096453212148 PICSAT 1 43132U 18004X 20037.23085010 .00001139 00000-0 49848-4 0 9998 2 43132 097.4628 109.3140 0010435 150.4361 209.7468 15.24083806114911 AO-92 1 43137U 18004AC 20037.44386225 .00000870 00000-0 39005-4 0 9993 2 43137 097.4615 109.4213 0009993 151.1323 209.0468 15.23863245114945 TianYi 2 1 43155U 18008A 20037.80789900 .00000976 00000-0 61331-4 0 9998 2 43155 97.4626 110.1698 0016166 238.9256 216.5762 15.11446002113036 Zhou Enlai 1 43156U 18008B 20037.85582192 .00001115 00000-0 70504-4 0 9996 2 43156 97.4679 110.0806 0013272 236.3138 175.0016 15.10971656113006 TianYi 6 1 43158U 18008D 20037.84426425 .00000405 00000-0 28357-4 0 9993 2 43158 97.4638 109.2877 0012434 234.6167 232.6825 15.10521240112954 S-Net G 1 43186U 18014G 20037.75072698 .00000462 00000-0 45448-4 0 9993 2 43186 97.7016 307.6725 0009791 310.4986 49.5382 14.96745519109991 S-Net H 1 43187U 18014H 20037.48313026 .00000413 00000-0 41221-4 0 9998 2 43187 97.7014 307.3912 0009816 311.3914 48.6463 14.96745077109959 S-Net J 1 43188U 18014J 20037.48297630 .00000404 00000-0 40390-4 0 9997 2 43188 97.7017 307.4159 0009817 311.5397 48.4982 14.96744671109958 S-Net K 1 43189U 18014K 20037.81761750 .00000473 00000-0 46470-4 0 9995 2 43189 97.7014 307.7167 0009772 310.1975 49.8391 14.96744845108552 FMN 1 1 43192U 18015A 20037.87148201 .00002097 00000-0 86475-4 0 9999 2 43192 97.4239 168.2192 0015699 187.0871 290.3977 15.25083827111849 Shaonian Xing 1 43199U 18015H 20037.88462405 .00001474 00000-0 61082-4 0 9997 2 43199 97.4027 166.8388 0016332 197.6048 281.5105 15.25382124111904 1KUNS-PF 1 43466U 98067NP 20036.60943258 .00049952 00000-0 27871-3 0 9998 2 43466 51.6303 228.2567 0001065 232.3770 127.7134 15.78890979 99388 UBAKUSAT 1 43467U 98067NQ 20037.84567758 .00020682 00000-0 17874-3 0 9994 2 43467 51.6335 235.8698 0001702 217.4103 142.6776 15.69177294 99404 Irazu 1 43468U 98067NR 20037.54364807 .00238139 33535-4 57241-3 0 9995 2 43468 51.6282 208.7846 0003848 273.4150 86.6418 15.96010634199716 EnduroSat One 1 43551U 98067NZ 20037.54284508 .00029931 00000-0 23435-3 0 9990 2 43551 51.6327 238.3372 0003579 303.7429 56.3228 15.71323208 89571 EQUISat 1 43552U 98067PA 20036.99150405 .00017046 00000-0 15511-3 0 9997 2 43552 051.6358 245.9881 0004164 300.7732 059.2855 15.68059577089388 UiTMSat 1 1 43589U 98067PD 20036.98381800 .00021002 00000-0 18129-3 0 9996 2 43589 51.6324 245.8103 0003396 309.5403 50.5294 15.69191371 85124 Maya 1 1 43590U 98067PE 20036.84956652 .00022876 00000-0 19698-3 0 9998 2 43590 51.6322 246.4219 0003502 309.5857 50.4830 15.69191446 85039 Bhutan 1 1 43591U 98067PF 20037.59501527 .00025310 00000-0 21639-3 0 9993 2 43591 51.6333 242.4475 0003685 312.8950 47.1737 15.69299012 85155 SiriusSat 1 1 43595U 98067PG 20037.29146953 .00016048 00000-0 14801-3 0 9993 2 43595 051.6329 247.1319 0002266 257.2545 102.8198 15.67782058084243 SiriusSat 2 1 43596U 98067PH 20037.59988671 .00016922 00000-0 15631-3 0 9991 2 43596 051.6337 246.2539 0002673 260.1307 099.9387 15.67697643084283 Tanusha-3 1 43597U 98067PJ 20037.59352592 .00027088 00000-0 20568-3 0 9999 2 43597 051.6306 240.0761 0002108 269.2627 090.8130 15.72116366084366 SurfSat 1 43614U 18070B 20037.13856479 .00002208 00000-0 57969-4 0 9991 2 43614 093.0330 099.8748 0017826 123.5382 236.7578 15.38553422078136 CP-7 DAVE 1 43615U 18070C 20037.15894730 .00002220 00000-0 58497-4 0 9997 2 43615 093.0334 099.8800 0017972 122.9708 237.3277 15.38440719078134 ELFIN-B 1 43616U 18070D 20037.62772698 .00003962 00000-0 10067-3 0 9992 2 43616 93.0294 99.9863 0018480 123.9488 236.3526 15.39500996 78233 ELFIN-A 1 43617U 18070E 20037.60947089 .00003983 00000-0 10081-3 0 9998 2 43617 93.0348 100.3806 0017859 120.9079 239.3934 15.39633440 78237 STARS-Me Mother 1 43640U 98067PQ 20037.62224610 .00010562 00000-0 12196-3 0 9998 2 43640 51.6350 255.4189 0004236 245.3445 114.7108 15.62520400 76094 CubeBel 1 1 43666U 18083E 20037.80713861 .00001003 00000-0 52565-4 0 9992 2 43666 97.5037 65.4977 0016982 97.9579 348.6134 15.17995285 70646 Changshagaoxin 1 43669U 18083H 20037.63858068 .00000763 00000-0 41852-4 0 9994 2 43669 97.4894 63.9234 0012541 92.2501 268.0169 15.17093458 70541 Ten-Koh 1 43677U 18084G 20037.28414492 .00000105 00000-0 16698-4 0 9994 2 43677 097.8684 154.8027 0014997 231.3032 128.6845 14.90243216069250 PO-101 1 43678U 18084H 20037.85825489 -.00000262 00000-0 -20432-4 0 9997 2 43678 97.8688 156.4118 0008407 249.9902 110.0390 14.91601098 69408 IRVINE 01 1 43693U 18088D 20037.32547030 .00002000 00000-0 84682-4 0 9990 2 43693 085.0378 164.4266 0019654 061.8312 298.4913 15.22298253068743 QO-100 1 43700U 18090A 20037.11872000 .00000148 00000-0 00000 0 0 9995 2 43700 0.0131 96.6957 0002294 243.9486 223.5738 1.00272117 4629 Reaktor Hello World 1 43743U 18096AA 20037.75291954 .00001084 00000-0 43469-4 0 9992 2 43743 97.4360 112.2317 0016570 229.9040 226.5644 15.27093298 66292 MinXSS-2 1 43758U 18099A 20037.79941645 .00000365 00000-0 38088-4 0 9996 2 43758 97.7210 111.8071 0014234 268.4882 91.4708 14.95566151 64277 AO-95 1 43770U 18099N 20037.64953028 -.00000123 00000-0 -60247-5 0 9999 2 43770 97.7210 111.2418 0013194 277.5660 82.4062 14.94902904 64226 RANGE-B 1 43772U 18099Q 20037.14983032 .00000787 00000-0 77004-4 0 9996 2 43772 97.7274 111.1154 0012700 264.7189 95.2583 14.95062256 64149 RANGE-A 1 43773U 18099R 20037.23764374 -.00000117 00000-0 -54632-5 0 9995 2 43773 097.7157 110.5748 0012106 265.1044 094.8794 14.94904905064152 MOVE-II 1 43780U 18099Y 20037.29815077 .00000356 00000-0 37505-4 0 9998 2 43780 097.7210 111.0271 0012061 276.0641 083.9205 14.95271636064167 SNUSat 2 1 43782U 18099AA 20037.16623008 .00000130 00000-0 17044-4 0 9993 2 43782 97.7209 110.9303 0011259 264.8380 95.1556 14.95178740 64159 SnugLite 1 43784U 18099AC 20037.27674305 .00000620 00000-0 61507-4 0 9990 2 43784 097.7172 110.9031 0013620 272.7446 087.2216 14.95267372064181 ITASat 1 1 43786U 18099AE 20037.81070518 .00000578 00000-0 57718-4 0 9999 2 43786 97.7224 111.7253 0013725 269.7883 90.1765 14.95253959 64260 EAGLET 1 1 43790U 18099AJ 20037.16713451 .00000138 00000-0 17599-4 0 9997 2 43790 97.7218 111.2872 0012016 278.2353 81.7505 14.95634505 63873 ESEO 1 43792U 18099AL 20037.43721830 -.00000188 00000-0 -11770-4 0 9991 2 43792 097.7193 111.4379 0011786 273.9677 086.0197 14.95567701063974 CSIM 1 43793U 18099AM 20037.65076854 .00000002 00000-0 53244-5 0 9991 2 43793 97.7173 111.5667 0011738 268.8594 91.1282 14.95913970 63988 Astrocast 0.1 1 43798U 18099AS 20037.43939798 -.00000076 00000-0 -16103-5 0 9993 2 43798 97.7208 111.6301 0011028 254.5498 105.4505 14.95817289 64215 JO-97 1 43803U 18099AX 20037.77309030 -.00000080 00000-0 -19759-5 0 9992 2 43803 97.7186 111.5407 0013715 271.0771 88.8878 14.95415130 64256 Suomi 100 1 43804U 18099AY 20037.63928349 -.00000061 00000-0 -31219-6 0 9993 2 43804 97.7185 111.4023 0013783 271.7438 88.2204 14.95408317 64246 Al Farabi 2 1 43805U 18099AZ 20037.82387147 .00000644 00000-0 63301-4 0 9990 2 43805 97.7190 111.6348 0013708 270.5825 89.3825 14.95505204 64276 PWSat 2 1 43814U 18099BJ 20037.48234210 .00019627 00000-0 13257-2 0 9998 2 43814 097.7799 116.2081 0009288 229.6741 130.3637 15.06592909063814 CHOMPTT 1 43855U 18104G 20037.75359030 .00000710 00000-0 28555-4 0 9990 2 43855 85.0376 262.3138 0017365 169.4193 190.7408 15.22737938 63483 ISAT 1 43879U 18111D 20037.68209052 .00000603 00000-0 58657-4 0 9991 2 43879 97.7099 307.1789 0012406 330.9492 29.1038 14.96142399 58781 UWE-4 1 43880U 18111E 20037.68328654 .00000586 00000-0 56850-4 0 9996 2 43880 97.7110 307.3823 0011532 332.2420 27.8185 14.96379796 58784 Sparrow 1 43881U 18111F 20037.67047045 .00000207 00000-0 23357-4 0 9994 2 43881 97.7113 307.4217 0011838 330.0651 29.9892 14.96432627 58788 Lume 1 1 43908U 18111AJ 20037.67720826 .00001036 00000-0 44456-4 0 9993 2 43908 97.2775 301.4166 0019791 247.5260 112.3883 15.24768619 61942 FO-98 1 43933U 19003B 20037.78676453 .00000629 00000-0 30490-4 0 9990 2 43933 97.2508 92.4346 0017538 351.5658 101.3401 15.21923751 58504 FO-99 1 43937U 19003F 20037.81646826 .00001061 00000-0 46285-4 0 9999 2 43937 97.2471 93.3452 0023337 333.6335 116.9678 15.24064544 58587 Delphini 1 1 44030U 98067PW 20037.63925496 .00015239 00000-0 17859-3 0 9990 2 44030 51.6349 261.5440 0003217 298.2480 61.8189 15.61733133 57883 MYSat 1 1 44045U 18092F 20037.21012948 .00001990 00000-0 66796-4 0 9993 2 44045 51.6468 324.0670 0011443 200.8394 159.2123 15.35978823 54968 AstroCast 0.2 1 44083U 19018F 20037.29747168 .00000764 00000-0 37137-4 0 9996 2 44083 97.4398 100.0553 0011604 275.4418 84.5494 15.21418635 47289 AISTechSat 3 1 44103U 19018AB 20037.77420620 .00000633 00000-0 29968-4 0 9991 2 44103 97.4276 100.6157 0011789 292.4469 163.4921 15.22951440 47393 AISat 1 1 44104U 19018AC 20037.66410736 .00000742 00000-0 26462-4 0 9994 2 44104 97.4808 106.4166 0057457 322.0194 37.7001 15.30826029 47649 Raavana-1 1 44329U 98067QE 20037.07167954 .00008214 00000-0 12568-3 0 9993 2 44329 51.6396 276.5652 0006233 221.1707 138.8815 15.55311897 36380 Uguisu 1 44330U 98067QF 20037.84942521 .00008877 00000-0 13547-3 0 9994 2 44330 51.6392 272.7577 0006203 222.8544 137.1965 15.55266641 36481 NepaliSat-1 1 44331U 98067QG 20037.64483600 .00009533 00000-0 14448-3 0 9992 2 44331 51.6392 273.6435 0006219 224.8148 135.2342 15.55355366 36463 Prox-1 1 44339U 19036A 20037.67041787 .00000892 00000-0 16261-3 0 9992 2 44339 24.0016 220.9985 0010558 153.2477 206.8584 14.52828507 32944 Oculus-ASR 1 44348U 19036K 20037.70069910 .00006325 00000-0 93174-4 0 9990 2 44348 28.5200 165.8448 0376991 344.8064 14.1468 15.00092887 33989 Armadillo 1 44352U 19036P 20037.70952890 .00008641 00000-0 12970-3 0 9990 2 44352 28.5351 164.2223 0368517 346.9764 12.1525 15.01757853 33940 NO-104 1 44354U 19036R 20037.64942003 .00008375 00000-0 12364-3 0 9991 2 44354 28.5305 164.6272 0374007 345.9965 13.0494 15.00974661 33977 NO-103 1 44355U 19036S 20037.63583621 .00016428 00000-0 24074-3 0 9997 2 44355 28.5306 161.6014 0361452 350.9582 8.4633 15.04128213 34007 CP9 1 44360U 19036X 20037.63372270 .00021981 -56506-5 26317-3 0 9999 2 44360 28.5170 155.2944 0353578 1.6049 358.5750 15.08679148 33944 Move-IIb 1 44398U 19038N 20037.87092528 .00000936 00000-0 57935-4 0 9993 2 44398 97.5196 0.9445 0024242 218.2130 141.7383 15.12027571 32698 SONATE 1 44400U 19038Q 20037.88029237 .00000296 00000-0 21061-4 0 9995 2 44400 97.5222 0.9723 0024294 216.2762 143.6822 15.11822521 32693 BeeSat 9 1 44412U 19038AC 20037.85447646 .00000752 00000-0 47323-4 0 9999 2 44412 97.5214 0.9919 0021677 221.9417 138.0154 15.12074398 32380 JAISAT-1 1 44419U 19038F 20037.65211585 .00000785 00000-0 48616-4 0 9997 2 44419 97.5215 0.9574 0020525 222.0162 137.9495 15.12556550 32678 LightSail-2 1 44420U 19036AC 20037.64375716 .00006477 00000-0 14470-2 0 9996 2 44420 24.0112 219.8750 0010378 143.6826 216.4687 14.54344481 31092 Taurus 1 1 44530U 19059C 20037.65283448 .00000003 00000-0 13681-4 0 9998 2 44530 98.5770 117.4679 0017005 186.6427 173.4558 14.45256787 21304 MO-106 1 44830U 19084G 20037.67722726 .00035891 00000-0 31733-3 0 9998 2 44830 96.9965 266.5080 0038713 22.5663 337.7291 15.67558447 9742 TRSI-Sat 1 44831U 19084H 20037.42103411 .00036846 00000-0 32593-3 0 9992 2 44831 96.9972 266.2641 0038690 22.8419 337.4553 15.67543495 9719 MO-105 1 44832U 19084J 20037.66955520 .00040943 00000-0 35780-3 0 9999 2 44832 96.9969 266.5225 0038113 21.9209 338.3673 15.67849964 9740 Duchifat 3 1 44854U 19089C 20037.67270059 .00000398 00000-0 38678-4 0 9996 2 44854 36.9666 157.0894 0007552 64.6581 295.4954 14.98964223 8516 OPS-SAT 1 44878U 19092F 20037.03989594 -.00000066 00000-0 00000-0 0 9994 2 44878 097.4613 222.5954 0015570 096.6874 263.6151 15.15239544007482 FloripaSat 1 1 44885U 19093G 20037.66495924 .00000214 00000-0 33681-4 0 9990 2 44885 97.9714 114.5688 0016348 114.3970 245.8955 14.81963612 7183 HuskySat 1 1 45117U 19071G 20037.67896035 .00001945 00000-0 71443-4 0 9994 2 45117 51.6437 279.8562 0010642 304.0615 55.9356 15.33099347 903 /EX